Location: Boiro
(42.6475°N, 8.8834°W)
Time: 03:45:57
(UTC+01:00)

Vanguard 2 - Pass Details

Date: 02 December 2021
Orbit: 553 x 2936 km, 32.9° (Epoch: 20 January)

Event Time Altitude Azimuth Distance (km) Brightness Sun altitude
Rises 14:23:47 0° 212° (SSW) 2,845 11.7 23.9°
Reaches altitude 10° 14:26:33 10° 190° (S) 2,112 11.8 23.8°
Maximum altitude 14:29:38 17° 149° (SSE) 1,928 10.4 23.6°
Drops below altitude 10° 14:33:26 10° 111° (ESE) 2,721 10.5 23.4°
Sets 14:37:45 0° 93° (E) 4,135 11.1 23.2°
